Погода в Горгане

Иран     36°38′36″N   54°57′29″E
темп.,
°C
ветер,
м/с
пор.,
м/с
влажн.,
%
обл.,
%
осадки,
мм/ч
давл.,
гПа
погр.,
м
21 апреля, ср
ср2101:30+16юз223426 0.0 101617
04:30+16зюз223165 0.0 101614
07:30+17юз22306 0.0 101743
10:30+22сз37213 0.0 10162410
13:30+24ссз572065 0.0 10163004
16:30+23ссз67235 0.0 10162563
19:30+19ссз22357 0.0 1017131
22:30+18ююз11345 0.0 101715
22 апреля, чт
чт2201:30+17юз11325 0.0 101811
04:30+15с01375 0.0 101811
07:30+18зсз113353 0.0 101922
10:30+22всв11255 0.0 10191205
13:30+23ссв222637 0.0 10181898
16:30+21с433715 0.0 10171064
19:30+19ююв2443100 0.0 1018379
22:30+18ююв2240100 0.3 1018114
23 апреля, пт
пт2301:30+16в1145100 0.0 101745
04:30+15юв224986 0.0 101721
07:30+17ю224592 0.1 1018115
10:30+20вюв2333100 0.1 1016824
13:30+21ссв1235100 0.0 1016923
16:30+13с1283100 2.4 1019156
19:30+12сз5582100 3.1 1020237
22:30+12ссз1180100 7.8 1021159
24 апреля, сб
сб2401:30+9ссз3395100 1.0 1021170
04:30+8ссз2295100 1.4 1021160
07:30+10ссз2183100 0.4 1021145
10:30+14всв1359100 1.0 1019448
13:30+17в1349100 0.4 1017810
16:30+16с2356100 1.1 1017868
19:30+13ссз2276100 2.8 1018127
22:30+13юз3471100 3.9 1019118
25 апреля, вс
вс2501:30+13сз2269100 0.1 101955
04:30+12ссв1170100 0.1 101933
07:30+13с2264100 0.0 101981
10:30+17в2349100 0.0 1018460
13:30+18св224088 0.0 1017502
16:30+20вюв1236100 0.0 10151293
19:30+17вюв2246100 0.0 1015152
22:30+17ююв334393 0.0 101636